This demonstration page uses our WeatherBlox Daily Observations layout. Learn more.

Left ArrowRight Arrow

38.83388, -104.82136

Hourly Observations for January 1, 2015

Temp ( °F °C ) Dew Point ( °F °C ) Humidity (%) Winds ( mph kmh ) Pressure ( in mb ) Visibility ( mi km ) Precip ( " mm )
12:56 am 00:56 Clear 12 -11.2 6 -14.3 78 78 NW 2 4 30.17 1022 10 16 N/A
1:56 am 01:56 Clear 13 -10.4 6 -14.2 74 74 SSW 1 2 30.16 1021 10 16 N/A
2:56 am 02:56 Clear 14 -10.1 6 -14.6 70 70 WNW 1 2 30.12 1020 10 16 N/A
3:56 am 03:56 Clear 15 -9.4 8 -13.2 74 74 NNW 2 4 30.10 1019 10 16 N/A
4:56 am 04:56 Clear 18 -7.7 9 -12.9 67 67 NNW 3 6 30.07 1018 10 16 0.00 0.00
5:56 am 05:56 Clear 19 -7.4 8 -13.5 62 62 S 2 4 30.06 1018 10 16 N/A
6:56 am 06:56 Clear 25 -4 11 -11.8 55 55 NNE 6 9 30.00 1016 10 16 N/A
7:56 am 07:56 Mostly Sunny 16 -8.9 7 -14 67 67 NNE 3 6 30.12 1020 10 16 N/A
8:56 am 08:56 Mostly Cloudy 14 -9.8 7 -14.1 71 71 VRB 5 7 30.15 1021 10 16 N/A
9:26 am 09:26 Cloudy with Light Snow 18 -8 9 -13 68 68 NNW 8 13 30.18 1022 10 16 N/A
9:36 am 09:36 Cloudy with Light Snow 18 -8 10 -12 73 73 N 16 26 30.18 1022 6 10 N/A
9:43 am 09:43 Windy with Snow Likely 19 -7 16 -9 86 86 NW 23 37 30.15 1021 2 3 N/A
9:53 am 09:53 Cloudy with Snow Showers 23 -5 18 -8 80 80 NNW 18 30 30.09 1019 5 8 N/A
9:56 am 09:56 Cloudy with Snow Showers 23 -5.1 18 -7.7 82 82 NNW 17 28 30.10 1019 5 8 N/A
10:01 am 10:01 Mostly Cloudy with Heavy Snow Showers 23 -5 18 -8 80 80 N 10 17 30.09 1019 3 5 N/A
10:06 am 10:06 Cloudy with Heavy Snow Showers 23 -5 19 -7 86 86 N 16 26 30.09 1019 1 1 N/A
10:21 am 10:21 Cloudy with Light Snow Showers 21 -6 19 -7 93 93 NNW 15 24 30.12 1020 7 11 N/A
10:36 am 10:36 Cloudy with Heavy Snow 21 -6 19 -7 93 93 N 18 30 30.09 1019 0 0 N/A
10:51 am 10:51 Cloudy with Snow 21 -6 19 -7 93 93 N 13 20 30.12 1020 2 4 N/A
10:56 am 10:56 Cloudy with Light Snow 20 -6.4 19 -7.1 95 95 N 8 13 30.10 1019 3 5 N/A
11:01 am 11:01 Cloudy with Light Snow 21 -6 19 -7 93 93 N 9 15 30.12 1020 3 5 N/A
11:06 am 11:06 Cloudy with Snow 21 -6 19 -7 93 93 N 8 13 30.12 1020 0 0 N/A
11:11 am 11:11 Mostly Cloudy with Heavy Snow 19 -7 19 -7 100 100 N 5 7 30.15 1021 1 2 N/A
11:31 am 11:31 Mostly Cloudy with Heavy Snow 18 -8 16 -9 93 93 VRB 1 2 30.18 1022 3 5 N/A
11:36 am 11:36 Cloudy with Heavy Snow 18 -8 16 -9 93 93 N 2 4 30.18 1022 3 5 N/A
11:42 am 11:42 Cloudy with Heavy Snow 18 -8 16 -9 93 93 NNE 7 11 30.18 1022 0 0 N/A
11:56 am 11:56 Cloudy with Heavy Snow 18 -7.8 17 -8.2 97 97 N 8 13 30.11 1020 5 8 0.01 0.25
12:01 pm 12:01 Cloudy with Snow 19 -7 19 -7 100 100 NNE 9 15 30.12 1020 3 5 N/A
12:31 pm 12:31 Cloudy with Light Snow 19 -7 18 -8 93 93 NNE 13 20 30.12 1020 1 2 N/A
12:34 pm 12:34 Cloudy with Light Snow 19 -7 18 -8 93 93 N 14 22 30.12 1020 1 2 N/A
12:56 pm 12:56 Mostly Cloudy with Snow 18 -7.6 18 -8 97 97 N 17 28 30.10 1019 5 8 0.02 0.51
1:56 pm 13:56 Cloudy with Light Snow 19 -7.4 17 -8.5 92 92 N 15 24 30.08 1019 1 1 N/A
2:11 pm 14:11 Cloudy with Light Snow 18 -8 18 -8 100 100 N 12 19 30.12 1020 3 5 N/A
2:34 pm 14:34 Cloudy with Light Snow 18 -8 18 -8 100 100 N 14 22 30.15 1021 2 4 N/A
2:54 pm 14:54 Mostly Cloudy with Light Snow 18 -8 16 -9 93 93 N 9 15 30.15 1021 3 4 N/A
2:56 pm 14:56 Mostly Cloudy with Light Snow 18 -7.8 17 -8.6 94 94 N 8 13 30.09 1019 3 4 N/A
3:16 pm 15:16 Mostly Cloudy with Light Snow 18 -8 16 -9 93 93 N 5 7 30.15 1021 2 4 N/A
3:26 pm 15:26 Mostly Cloudy with Light Snow 18 -8 16 -9 93 93 N 7 11 30.15 1021 2 3 N/A
3:36 pm 15:36 Cloudy with Light Snow 18 -8 16 -9 93 93 N 8 13 30.18 1022 3 5 N/A
3:45 pm 15:45 Cloudy with Light Snow 18 -8 16 -9 93 93 N 8 13 30.18 1022 7 11 N/A
3:56 pm 15:56 Cloudy with Light Snow 17 -8.3 16 -9.1 94 94 N 6 9 30.12 1020 3 4 0.01 0.25
3:58 pm 15:58 Cloudy with Light Snow 18 -8 16 -9 93 93 N 7 11 30.18 1022 3 4 N/A
4:18 pm 16:18 Mostly Cloudy with Light Snow 16 -9 16 -9 100 100 NNW 8 13 30.21 1023 5 8 N/A
4:23 pm 16:23 Mostly Cloudy with Light Snow 16 -9 16 -9 100 100 NNW 8 13 30.21 1023 5 8 N/A
4:56 pm 16:56 Partly Cloudy 22 -5.8 6 -14.2 52 52 S 8 13 30.32 1027 10 16 0.00 0.00
5:46 pm 17:46 Mostly Cloudy with Light Snow Showers 18 -8 14 -10 86 86 VRB 2 4 30.18 1022 10 16 N/A
5:56 pm 17:56 Mostly Cloudy with Light Snow Showers 16 -9 13 -10.4 90 90 NNW 5 7 30.12 1020 10 16 N/A
6:03 pm 18:03 Mostly Cloudy 16 -9 14 -10 93 93 N 6 9 30.21 1023 10 16 N/A
6:12 pm 18:12 Mostly Cloudy with Light Snow Showers 18 -8 14 -10 86 86 N 6 9 30.18 1022 10 16 N/A
6:31 pm 18:31 Mostly Cloudy 16 -9 14 -10 93 93 SSE 2 4 30.21 1023 10 16 N/A
6:39 pm 18:39 Mostly Cloudy with Light Snow Showers 16 -9 14 -10 93 93 VRB 1 2 30.21 1023 10 16 N/A
6:42 pm 18:42 Mostly Cloudy 18 -8 14 -10 86 86 W 1 2 30.18 1022 10 16 N/A
6:44 pm 18:44 Mostly Cloudy with Light Snow Showers 16 -9 14 -10 93 93 NW 3 6 30.21 1023 10 16 N/A
6:56 pm 18:56 Mostly Cloudy with Light Snow Showers 18 -8 13 -10.6 82 82 N 6 9 30.12 1020 10 16 N/A
7:12 pm 19:12 Mostly Cloudy 18 -8 14 -10 86 86 VRB 2 4 30.18 1022 10 16 N/A
7:19 pm 19:19 Mostly Cloudy with Light Snow Showers 16 -9 14 -10 93 93 VRB 5 7 30.21 1023 10 16 N/A
7:56 pm 19:56 Cloudy with Light Snow Showers 17 -8.6 13 -10.4 87 87 VRB 2 4 30.17 1022 10 16 0.00 0.00
8:32 pm 20:32 Cloudy 18 -8 12 -11 79 79 N 6 9 30.18 1022 10 16 N/A
8:56 pm 20:56 Cloudy 17 -8.2 13 -10.3 85 85 VRB 2 4 30.17 1022 10 16 N/A
9:56 pm 21:56 Mostly Cloudy 17 -8.1 13 -10.4 84 84 VRB 1 2 30.15 1021 10 16 N/A
10:56 pm 22:56 Mostly Cloudy 18 -7.9 13 -10.6 81 81 SW 2 4 30.16 1021 10 16 0.00 0.00
11:56 pm 23:56 Mostly Cloudy 18 -7.9 13 -10.5 82 82 VRB 2 4 30.18 1022 10 16 N/A

Powered by AerisWeather